Watsonville, CA

8:09 PM PDT on October 23, 2017 (GMT -0700)
Watsonville Municipal

Weather History for KWVI - March, 2014

Change the Weather History Date:

Sunday, March 30, 2014

  Actual Average Record
Temperature  
Mean Temperature 52 °F 54 °F  
Max Temperature 60 °F 65 °F 81 °F (2003)
Min Temperature 44 °F 43 °F 37 °F (2008)
Degree Days  
Heating Degree Days 13    
Month to date heating degree days 229  
Since 1 July heating degree days 1968  
Cooling Degree Days 0    
Month to date cooling degree days 0  
Year to date cooling degree days 0  
Growing Degree Days 2 (Base 50)    
Moisture  
Dew Point 46 °F    
Average Humidity 81    
Maximum Humidity 100    
Minimum Humidity 62    
Precipitation  
Precipitation 0.01 in - 0.95 in (1982)
Month to date precipitation 1.84  
Year to date precipitation 6.59  
Since 1 July precipitation 7.66  
Sea Level Pressure  
Sea Level Pressure 30.12 in    
Wind  
Wind Speed 5 mph (WSW)    
Max Wind Speed 18 mph    
Max Gust Speed 23 mph    
Visibility 8 miles    
Events Fog    
T = Trace of Precipitation, MM = Missing Value Source: NWS Daily Summary

Daily Weather History Graph

Daily Weather History Graph

Search for Another Location

Airport or City:

Trip Planner

Search our weather history database for the weather conditions in past years. The results will help you decide how hot, cold, wet, or windy it might be!

Date:

Astronomy

Mar. 30, 2014 Rise Set
Actual Time 6:55 AM PDT 7:27 PM PDT
Civil Twilight 6:29 AM PDT 7:54 PM PDT
Nautical Twilight 5:59 AM PDT 8:24 PM PDT
Astronomical Twilight 5:27 AM PDT 8:56 PM PDT
Moon 6:44 AM PDT (3/30) 7:45 PM PDT (3/30)
Length of Visible Light 13h 24m
Length of Day
12h 32m
New Moon, 0% of the Moon is Illuminated
Mar 30
New Moon
Apr 7
First Quarter
Apr 15
Full
Apr 22
Last Quarter
Apr 28
New

Hourly Weather History & Observations

Time (PDT) Temp. Windchill Dew Point Humidity Pressure Visibility Wind Dir Wind Speed Gust Speed Precip Events Conditions
12:53 AM 51.1 °F - 48.9 °F 92% 30.07 in 10.0 mi Calm Calm - 0.00 in   Overcast
1:53 AM 50.0 °F - 48.0 °F 93% 30.08 in 10.0 mi Calm Calm - N/A   Partly Cloudy
2:53 AM 48.9 °F - 48.0 °F 97% 30.08 in 9.0 mi Calm Calm - N/A   Clear
3:53 AM 46.9 °F - 46.0 °F 97% 30.08 in 10.0 mi NW 3.5 mph - N/A   Clear
4:12 AM 46.4 °F 45.2 °F 44.6 °F 93% 30.08 in 10.0 mi NNW 3.5 mph - N/A   Partly Cloudy
4:29 AM 46.4 °F 45.2 °F 44.6 °F 93% 30.08 in 10.0 mi WNW 3.5 mph - N/A   Mostly Cloudy
4:53 AM 46.0 °F 44.8 °F 44.1 °F 93% 30.09 in 10.0 mi WNW 3.5 mph - N/A   Scattered Clouds
5:53 AM 45.0 °F - 43.0 °F 93% 30.09 in 9.0 mi Calm Calm - N/A   Clear
6:08 AM 44.6 °F - 42.8 °F 93% 30.09 in 10.0 mi Calm Calm - N/A   Scattered Clouds
6:17 AM 44.6 °F 42.2 °F 42.8 °F 93% 30.09 in 10.0 mi WNW 4.6 mph - N/A   Mostly Cloudy
6:53 AM 45.0 °F 43.5 °F 43.0 °F 93% 30.11 in 10.0 mi NW 3.5 mph - N/A   Mostly Cloudy
7:09 AM 44.6 °F 43.1 °F 42.8 °F 93% 30.11 in 10.0 mi NW 3.5 mph - N/A   Scattered Clouds
7:33 AM 44.6 °F - 42.8 °F 93% 30.12 in 2.0 mi Calm Calm - N/A   Mostly Cloudy
7:35 AM 44.6 °F - 44.6 °F 100% 30.12 in 1.0 mi Calm Calm - N/A   Mist
7:43 AM 44.6 °F - 44.6 °F 100% 30.12 in 0.5 mi Calm Calm - N/A Fog Fog
7:53 AM 46.0 °F - 44.1 °F 93% 30.13 in 2.5 mi Calm Calm - 0.01 in   Mostly Cloudy
8:00 AM 46.4 °F - 44.6 °F 93% 30.12 in 10.0 mi Calm Calm - N/A   Mostly Cloudy
8:32 AM 48.2 °F - 46.4 °F 93% 30.13 in 10.0 mi Calm Calm - N/A   Scattered Clouds
8:53 AM 48.0 °F - 46.9 °F 96% 30.14 in 2.0 mi SE 3.5 mph - N/A   Scattered Clouds
8:55 AM 48.2 °F - 46.4 °F 93% 30.14 in 1.2 mi Calm Calm - N/A   Scattered Clouds
8:57 AM 48.2 °F - 46.4 °F 93% 30.14 in 0.8 mi Calm Calm - N/A   Mist
9:07 AM 48.2 °F - 48.2 °F 100% 30.14 in 0.2 mi Calm Calm - N/A Fog Fog
9:16 AM 50.0 °F - 48.2 °F 94% 30.15 in 1.0 mi Calm Calm - N/A   Mist
9:19 AM 50.0 °F - 48.2 °F 94% 30.15 in 2.0 mi Calm Calm - N/A   Overcast
9:27 AM 50.0 °F - 48.2 °F 94% 30.15 in 6.0 mi Calm Calm - N/A   Mostly Cloudy
9:42 AM 51.8 °F - 48.2 °F 88% 30.15 in 10.0 mi Calm Calm - N/A   Scattered Clouds
9:53 AM 52.0 °F - 48.9 °F 89% 30.15 in 10.0 mi Calm Calm - N/A   Clear
10:53 AM 57.0 °F - 48.9 °F 74% 30.14 in 10.0 mi SE 3.5 mph - N/A   Scattered Clouds
11:22 AM 55.4 °F - 46.4 °F 72% 30.15 in 10.0 mi South 5.8 mph - N/A   Mostly Cloudy
11:53 AM 57.9 °F - 48.0 °F 70% 30.15 in 10.0 mi SSW 8.1 mph - N/A   Mostly Cloudy
12:53 PM 57.9 °F - 48.0 °F 70% 30.16 in 10.0 mi SSW 9.2 mph - N/A   Mostly Cloudy
1:11 PM 57.2 °F - 46.4 °F 67% 30.16 in 10.0 mi SW 10.4 mph - N/A   Scattered Clouds
1:53 PM 59.0 °F - 46.9 °F 64% 30.15 in 10.0 mi WSW 9.2 mph - N/A   Clear
2:53 PM 59.0 °F - 46.9 °F 64% 30.15 in 10.0 mi SW 17.3 mph 20.7 mph N/A   Clear
3:53 PM 57.9 °F - 46.0 °F 65% 30.14 in 10.0 mi SW 13.8 mph 23.0 mph 0.00 in   Mostly Cloudy
4:53 PM 57.9 °F - 48.0 °F 70% 30.12 in 10.0 mi SW 11.5 mph 17.3 mph N/A   Overcast
5:53 PM 55.9 °F - 46.0 °F 69% 30.11 in 10.0 mi WSW 10.4 mph - N/A   Scattered Clouds
6:53 PM 54.0 °F - 46.0 °F 75% 30.12 in 10.0 mi SW 10.4 mph - N/A   Mostly Cloudy
7:53 PM 53.1 °F - 44.1 °F 71% 30.12 in 10.0 mi SSW 6.9 mph - N/A   Clear
8:53 PM 52.0 °F - 45.0 °F 77% 30.13 in 10.0 mi West 3.5 mph - N/A   Clear
9:53 PM 48.9 °F - 45.0 °F 86% 30.13 in 10.0 mi Calm Calm - N/A   Clear
10:53 PM 46.9 °F - 44.1 °F 90% 30.12 in 10.0 mi NNW 3.5 mph - N/A   Clear
11:53 PM 45.0 °F 42.6 °F 43.0 °F 93% 30.11 in 10.0 mi NW 4.6 mph - N/A   Clear